Météo par heure à Aljustrel

Ce jour, 15 Mai, Samedi

Heure Température Précipitation Vent Pression Humidité
00:00 +13°C° 0 mm 2 m/s 750 mmHg 90%
01:00 +13°C° 0 mm 2 m/s 750 mmHg 92%
02:00 +12°C° 0 mm 2 m/s 749 mmHg 94%
03:00 +12°C° 0 mm 2 m/s 749 mmHg 93%
04:00 +13°C° 0 mm 2 m/s 749 mmHg 93%
05:00 +13°C° 0 mm 2 m/s 750 mmHg 94%
06:00 +15°C° 0 mm 2 m/s 750 mmHg 81%
07:00 +18°C° 0 mm 2 m/s 750 mmHg 68%
08:00 +21°C° 0 mm 3 m/s 750 mmHg 55%
09:00 +22°C° 0 mm 3 m/s 750 mmHg 49%
10:00 +25°C° 0 mm 3 m/s 750 mmHg 42%
11:00 +27°C° 0 mm 3 m/s 750 mmHg 36%
12:00 +28°C° 0 mm 4 m/s 749 mmHg 36%
13:00 +29°C° 0 mm 5 m/s 749 mmHg 36%
14:00 +29°C° 0 mm 5 m/s 749 mmHg 35%
15:00 +28°C° 0 mm 5 m/s 749 mmHg 41%
16:00 +27°C° 0 mm 5 m/s 749 mmHg 46%
17:00 +24°C° 0 mm 6 m/s 749 mmHg 51%
18:00 +22°C° 0 mm 5 m/s 749 mmHg 61%
19:00 +20°C° 0 mm 4 m/s 749 mmHg 72%
20:00 +17°C° 0 mm 3 m/s 750 mmHg 83%
21:00 +17°C° 0 mm 3 m/s 749 mmHg 86%
22:00 +16°C° 0 mm 3 m/s 749 mmHg 89%
23:00 +16°C° 0 mm 2 m/s 749 mmHg 92%

Demain, 16 Mai, Dimanche

Heure Température Précipitation Vent Pression Humidité
00:00 +15°C° 0 mm 2 m/s 749 mmHg 93%
01:00 +15°C° 0 mm 2 m/s 749 mmHg 93%
02:00 +15°C° 0 mm 2 m/s 748 mmHg 94%
03:00 +15°C° 0 mm 2 m/s 748 mmHg 94%
04:00 +15°C° 0 mm 2 m/s 748 mmHg 93%
05:00 +15°C° 0 mm 2 m/s 748 mmHg 93%
06:00 +17°C° 0 mm 3 m/s 749 mmHg 82%
07:00 +20°C° 0 mm 3 m/s 749 mmHg 71%
08:00 +22°C° 0 mm 4 m/s 749 mmHg 59%
09:00 +25°C° 0 mm 4 m/s 749 mmHg 54%
10:00 +27°C° 0 mm 5 m/s 749 mmHg 48%
11:00 +29°C° 0 mm 5 m/s 749 mmHg 43%
12:00 +29°C° 0 mm 5 m/s 749 mmHg 42%
13:00 +29°C° 0 mm 6 m/s 748 mmHg 42%
14:00 +29°C° 0 mm 6 m/s 748 mmHg 41%
15:00 +28°C° 0 mm 6 m/s 748 mmHg 46%
16:00 +26°C° 0 mm 6 m/s 748 mmHg 50%
17:00 +24°C° 0 mm 6 m/s 748 mmHg 54%
18:00 +22°C° 0 mm 6 m/s 749 mmHg 60%
19:00 +21°C° 0 mm 5 m/s 749 mmHg 67%
20:00 +19°C° 0 mm 5 m/s 749 mmHg 74%
21:00 +18°C° 0 mm 4 m/s 749 mmHg 80%
22:00 +17°C° 0 mm 4 m/s 749 mmHg 87%
23:00 +16°C° 0 mm 3 m/s 749 mmHg 93%

Après-demain, 17 Mai, Lundi

Heure Température Précipitation Vent Pression Humidité
00:00 +14°C° 0 mm 3 m/s 749 mmHg 95%
01:00 +15°C° 0 mm 2 m/s 749 mmHg 96%
02:00 +15°C° 0 mm 2 m/s 749 mmHg 98%
03:00 +15°C° 0 mm 2 m/s 749 mmHg 96%
04:00 +15°C° 0 mm 2 m/s 750 mmHg 95%
05:00 +16°C° 0 mm 2 m/s 750 mmHg 94%
06:00 +18°C° 0 mm 3 m/s 750 mmHg 84%
07:00 +19°C° 0 mm 4 m/s 750 mmHg 74%
08:00 +21°C° 0 mm 5 m/s 750 mmHg 63%
09:00 +23°C° 0 mm 5 m/s 750 mmHg 54%
10:00 +26°C° 0 mm 5 m/s 750 mmHg 45%
11:00 +28°C° 0 mm 6 m/s 750 mmHg 36%
12:00 +28°C° 0 mm 6 m/s 750 mmHg 34%
13:00 +28°C° 0 mm 6 m/s 750 mmHg 32%
14:00 +29°C° 0 mm 6 m/s 750 mmHg 29%
15:00 +28°C° 0 mm 6 m/s 750 mmHg 30%
16:00 +27°C° 0 mm 6 m/s 750 mmHg 30%
17:00 +26°C° 0 mm 6 m/s 750 mmHg 31%
18:00 +22°C° 0 mm 6 m/s 751 mmHg 35%
19:00 +20°C° 0 mm 5 m/s 752 mmHg 39%
20:00 +17°C° 0 mm 4 m/s 752 mmHg 43%
21:00 +15°C° 0 mm 4 m/s 752 mmHg 47%
22:00 +14°C° 0 mm 4 m/s 752 mmHg 50%
23:00 +13°C° 0 mm 3 m/s 752 mmHg 54%

18 Mai, Mardi

Heure Température Précipitation Vent Pression Humidité
00:00 +13°C° 0 mm 3 m/s 752 mmHg 55%
01:00 +12°C° 0 mm 3 m/s 752 mmHg 56%
02:00 +12°C° 0 mm 3 m/s 752 mmHg 57%
03:00 +12°C° 0 mm 3 m/s 752 mmHg 57%
04:00 +12°C° 0 mm 3 m/s 752 mmHg 58%
05:00 +12°C° 0 mm 2 m/s 752 mmHg 58%
06:00 +14°C° 0 mm 3 m/s 752 mmHg 48%
07:00 +18°C° 0 mm 4 m/s 753 mmHg 39%
08:00 +21°C° 0 mm 4 m/s 753 mmHg 29%
09:00 +25°C° 0 mm 4 m/s 753 mmHg 27%
10:00 +27°C° 0 mm 4 m/s 752 mmHg 24%
11:00 +29°C° 0 mm 4 m/s 752 mmHg 22%
12:00 +30°C° 0 mm 4 m/s 752 mmHg 22%
13:00 +32°C° 0 mm 4 m/s 751 mmHg 23%
14:00 +33°C° 0 mm 4 m/s 751 mmHg 23%
15:00 +32°C° 0 mm 4 m/s 751 mmHg 25%
16:00 +30°C° 0 mm 5 m/s 751 mmHg 27%
17:00 +30°C° 0 mm 5 m/s 751 mmHg 29%
18:00 +27°C° 0 mm 5 m/s 751 mmHg 36%
19:00 +23°C° 0 mm 5 m/s 752 mmHg 42%
20:00 +21°C° 0 mm 4 m/s 752 mmHg 48%
21:00 +19°C° 0 mm 4 m/s 752 mmHg 50%
22:00 +17°C° 0 mm 3 m/s 752 mmHg 53%
23:00 +16°C° 0 mm 3 m/s 752 mmHg 55%

19 Mai, Mercredi

Heure Température Précipitation Vent Pression Humidité
00:00 +14°C° 0 mm 3 m/s 752 mmHg 54%
01:00 +15°C° 0 mm 2 m/s 752 mmHg 54%
02:00 +14°C° 0 mm 2 m/s 751 mmHg 53%
03:00 +14°C° 0 mm 2 m/s 751 mmHg 54%
04:00 +14°C° 0 mm 2 m/s 751 mmHg 54%
05:00 +14°C° 0 mm 1 m/s 752 mmHg 54%
06:00 +18°C° 0 mm 2 m/s 752 mmHg 48%
07:00 +21°C° 0 mm 2 m/s 752 mmHg 41%
08:00 +25°C° 0 mm 2 m/s 752 mmHg 34%
09:00 +28°C° 0 mm 2 m/s 751 mmHg 30%
10:00 +30°C° 0 mm 2 m/s 751 mmHg 26%
11:00 +32°C° 0 mm 2 m/s 751 mmHg 22%
12:00 +34°C° 0 mm 3 m/s 750 mmHg 21%
13:00 +34°C° 0 mm 3 m/s 750 mmHg 21%
14:00 +35°C° 0 mm 3 m/s 750 mmHg 20%
15:00 +34°C° 0 mm 4 m/s 750 mmHg 22%
16:00 +34°C° 0 mm 4 m/s 750 mmHg 24%
17:00 +33°C° 0 mm 5 m/s 750 mmHg 25%
18:00 +29°C° 0 mm 5 m/s 750 mmHg 32%
19:00 +26°C° 0 mm 4 m/s 750 mmHg 39%
20:00 +22°C° 0 mm 4 m/s 751 mmHg 45%
21:00 +20°C° 0 mm 4 m/s 751 mmHg 47%
22:00 +19°C° 0 mm 3 m/s 751 mmHg 48%
23:00 +17°C° 0 mm 3 m/s 751 mmHg 50%

20 Mai, Jeudi

Heure Température Précipitation Vent Pression Humidité
00:00 +17°C° 0 mm 3 m/s 751 mmHg 48%
01:00 +16°C° 0 mm 3 m/s 751 mmHg 45%
02:00 +14°C° 0 mm 3 m/s 750 mmHg 43%
03:00 +15°C° 0 mm 2 m/s 750 mmHg 45%
04:00 +15°C° 0 mm 2 m/s 750 mmHg 46%
05:00 +14°C° 0 mm 2 m/s 750 mmHg 47%
06:00 +18°C° 0 mm 3 m/s 751 mmHg 43%
07:00 +21°C° 0 mm 4 m/s 751 mmHg 38%
08:00 +25°C° 0 mm 4 m/s 751 mmHg 33%
09:00 +27°C° 0 mm 5 m/s 751 mmHg 31%
10:00 +29°C° 0 mm 5 m/s 751 mmHg 28%
11:00 +32°C° 0 mm 5 m/s 750 mmHg 25%
12:00 +33°C° 0 mm 5 m/s 750 mmHg 23%
13:00 +34°C° 0 mm 5 m/s 750 mmHg 21%
14:00 +34°C° 0 mm 5 m/s 749 mmHg 18%
15:00 +34°C° 0 mm 5 m/s 749 mmHg 19%
16:00 +33°C° 0 mm 5 m/s 749 mmHg 19%
17:00 +32°C° 0 mm 5 m/s 749 mmHg 20%
18:00 +28°C° 0 mm 5 m/s 749 mmHg 31%
19:00 +25°C° 0 mm 5 m/s 749 mmHg 43%
20:00 +21°C° 0 mm 5 m/s 750 mmHg 54%
21:00 +19°C° 0 mm 4 m/s 750 mmHg 59%
22:00 +17°C° 0 mm 3 m/s 750 mmHg 65%
23:00 +15°C° 0 mm 2 m/s 750 mmHg 71%
Voir plus

Nous avons besoin de votre consentement

Meteoprog et ses fournisseurs de services peuvent stocker et accéder à des données personnelles telles que des cookies, des identifiants d'appareils ou d'autres technologies similaires sur votre appareil et traiter ces données pour personnaliser le contenu et les publicités, ainsi que pour fournir des fonctionnalités de médias sociaux et analyser le trafic.

  • Stocker et/ou accéder à des informations sur votre appareil

    Des cookies, des identifiants d'appareils ou d'autres informations peuvent être stockés ou accessibles sur votre appareil aux fins indiquées ci-dessus.

  • Annonces et contenus personnalisés, mesure des annonces et des contenus, connaissance de l'audience et développement de produits

    Les annonces et le contenu peuvent être personnalisés en fonction d'un profil. D'autres données peuvent être ajoutées pour mieux personnaliser les annonces et le contenu. Les performances des publicités et du contenu peuvent être mesurées. Il est possible d'obtenir des informations sur le public qui a vu les publicités et le contenu. Ces données peuvent être utilisées pour développer ou améliorer l'expérience de l'utilisateur, les systèmes et les logiciels.

En cliquant sur "J'accepte", vous autorisez l'utilisation de cookies, des identifiants d'appareils, des balises web ou d'autres technologies similaires. Vos paramètres peuvent être modifiés dans le navigateur de votre appareil.

Dans certains cas, des intérêts légitimes peuvent être invoqués plutôt qu'un consentement. Vous pouvez en savoir plus à ce sujet dans notre Politique de confidentialité et de cookies.